Air Resources Laboratory banner image
Air Resources Laboratory web site National Oceanic and Atmospheric Administration (NOAA)

oh roundup


Office: CLE

ASUS41 KCLE 170902
RWRCLE
OHIO REGIONAL WEATHER ROUNDUP
NATIONAL WEATHER SERVICE CLEVELAND, OH
500 AM EDT WED AUG 17 2022

NOTE: "FAIR" INDICATES FEW OR NO CLOUDS BELOW 12,000 FEET WITH NO
SIGNIFICANT WEATHER AND/OR OBSTRUCTIONS TO VISIBILITY.

OHZ001>008-015>018-024>027-034-035-043-044-171000-
   NORTHWEST OHIO

CITY           SKY/WX    TMP DP  RH WIND       PRES   REMARKS
DEFIANCE       CLEAR     60  58  92 N3        30.08F
FINDLAY        CLEAR     64  60  87 N7        30.06S
TOLEDO EXPRESS CLEAR     63  58  83 N3        30.08S
TOLEDO EXEC    CLEAR     66  62  87 NE5       30.08F
LIMA           CLEAR     61  58  90 N6        30.07S
$$

OHZ009>014-019>023-028>033-038-089-171000-
   NORTHEAST OHIO

CITY           SKY/WX    TMP DP  RH WIND       PRES   REMARKS
CLE-HOPKINS    CLOUDY    67  58  72 CALM      30.06R
CLE-LAKEFRONT  CLOUDY    70  60  70 NE3       30.06S
CUY CO. ARPT   CLOUDY    64  60  85 E3        30.09S
LORAIN-ELYRIA  CLOUDY    62  58  86 CALM      30.08S
ASHTABULA      CLOUDY    62  60  93 CALM      30.09S
AKRON-CANTON   MOCLDY    64  60  87 NE5       30.07S
WOOSTER        PTCLDY    61  60  97 NE6       30.07S
MANSFIELD      PTCLDY    58  57  97 N6        30.07S
YOUNGSTOWN     LGT RAIN  62  60  93 E6        30.08S
$$

OHZ042-051>053-060>062-070>072-077>081-171000-
  SOUTHWEST OHIO

CITY           SKY/WX    TMP DP  RH WIND       PRES   REMARKS
CINC-COVINGTON CLEAR     63  56  78 N6        30.02S
CINC-LUNKEN    FOG       61  61 100 CALM      30.02S VSB 3/4
HAMILTON       CLEAR     62  60  93 CALM      30.03S
DAYTON         CLEAR     62  58  86 N7        30.05S
WRIGHT-PAT AFB CLEAR     62  59  92 CALM      30.00F
DAYTON GENERAL CLEAR     61  59  93 NE6       30.02F
WILMINGTON     CLEAR     60  59  96 NE6       30.02S FOG
$$

OHZ036-037-039>041-045>050-054>059-063>069-073>076-082>088-171000-
  CENTRAL AND SOUTHEAST OHIO

CITY           SKY/WX    TMP DP  RH WIND       PRES   REMARKS
COLUMBUS       PTCLDY    63  60  90 CALM      30.02S
OSU AIRPORT    CLEAR     62  58  86 N6        30.03S
BOLTON FIELD   NOT AVBL
RICKENBACK AFB CLEAR     63  59  89 NE9       30.01F
NEWARK         CLEAR     63  59  87 CALM      30.03S
MARION         PTCLDY    59  56  89 N5        30.06S
LANCASTER      CLEAR     59  59 100 N3        30.03S FOG
ZANESVILLE     MOCLDY    63  60  90 N3        30.03S
NEW PHILLY     NOT AVBL
$$


ASUS41 KCLE 170910
RWRCLE
OHIO REGIONAL WEATHER ROUNDUP
NATIONAL WEATHER SERVICE CLEVELAND, OH
500 AM EDT WED AUG 17 2022

NOTE: "FAIR" INDICATES FEW OR NO CLOUDS BELOW 12,000 FEET WITH NO
SIGNIFICANT WEATHER AND/OR OBSTRUCTIONS TO VISIBILITY.

OHZ001>008-015>018-024>027-034-035-043-044-171000-
   NORTHWEST OHIO

CITY           SKY/WX    TMP DP  RH WIND       PRES   REMARKS
DEFIANCE       CLEAR     60  58  92 N3        30.08F
FINDLAY        CLEAR     64  60  87 N7        30.06S
TOLEDO EXPRESS CLEAR     63  58  83 N3        30.08S
TOLEDO EXEC    CLEAR     66  62  87 NE5       30.08F
LIMA           CLEAR     61  58  90 N6        30.07S
$$

OHZ009>014-019>023-028>033-038-089-171000-
   NORTHEAST OHIO

CITY           SKY/WX    TMP DP  RH WIND       PRES   REMARKS
CLE-HOPKINS    CLOUDY    67  58  72 CALM      30.06R
CLE-LAKEFRONT  CLOUDY    70  60  70 NE3       30.06S
CUY CO. ARPT   CLOUDY    64  60  85 E3        30.09S
LORAIN-ELYRIA  CLOUDY    62  58  86 CALM      30.08S
ASHTABULA      CLOUDY    62  60  93 CALM      30.09S
AKRON-CANTON   MOCLDY    64  60  87 NE5       30.07S
WOOSTER        PTCLDY    61  60  97 NE6       30.07S
MANSFIELD      PTCLDY    58  57  97 N6        30.07S
YOUNGSTOWN     LGT RAIN  62  60  93 E6        30.08S
$$

OHZ042-051>053-060>062-070>072-077>081-171000-
  SOUTHWEST OHIO

CITY           SKY/WX    TMP DP  RH WIND       PRES   REMARKS
CINC-COVINGTON CLEAR     63  56  78 N6        30.02S
CINC-LUNKEN    FOG       61  61 100 CALM      30.02S VSB 3/4
HAMILTON       CLEAR     62  60  93 CALM      30.03S
DAYTON         CLEAR     62  58  86 N7        30.05S
WRIGHT-PAT AFB CLEAR     62  59  92 CALM      30.00F
DAYTON GENERAL CLEAR     61  59  93 NE6       30.02F
WILMINGTON     CLEAR     60  59  96 NE6       30.02S FOG
$$

OHZ036-037-039>041-045>050-054>059-063>069-073>076-082>088-171000-
  CENTRAL AND SOUTHEAST OHIO

CITY           SKY/WX    TMP DP  RH WIND       PRES   REMARKS
COLUMBUS       PTCLDY    63  60  90 CALM      30.02S
OSU AIRPORT    CLEAR     62  58  86 N6        30.03S
BOLTON FIELD   CLEAR     61  58  91 NE5       30.03F
RICKENBACK AFB CLEAR     63  59  89 NE9       30.01F
NEWARK         PTCLDY    63  59  87 CALM      30.03S
MARION         PTCLDY    59  56  89 N5        30.06S
LANCASTER      CLEAR     59  59 100 N3        30.03S FOG
ZANESVILLE     MOCLDY    63  60  90 N3        30.03S
NEW PHILLY     NOT AVBL
$$


ASUS41 KCLE 170910
RWRCLE
OHIO REGIONAL WEATHER ROUNDUP
NATIONAL WEATHER SERVICE WILMINGTON, OH
500 AM EDT WED AUG 17 2022

NOTE: "FAIR" INDICATES FEW OR NO CLOUDS BELOW 12,000 FEET WITH NO
SIGNIFICANT WEATHER AND/OR OBSTRUCTIONS TO VISIBILITY.

OHZ001>008-015>018-024>027-034-035-043-044-171000-
   NORTHWEST OHIO

CITY           SKY/WX    TMP DP  RH WIND       PRES   REMARKS
DEFIANCE       FAIR      60  58  92 N3        30.08F
FINDLAY        FAIR      64  60  87 N7        30.06S
TOLEDO EXPRESS FAIR      63  58  83 N3        30.08S
TOLEDO EXEC    FAIR      66  62  87 NE5       30.08F
LIMA           FAIR      61  58  90 N6        30.07S
$$

OHZ009>014-019>023-028>033-038-089-171000-
   NORTHEAST OHIO

CITY           SKY/WX    TMP DP  RH WIND       PRES   REMARKS
CLE-HOPKINS    CLOUDY    67  58  72 CALM      30.06R
CLE-LAKEFRONT  CLOUDY    70  60  70 NE3       30.06S
CUY CO. ARPT   CLOUDY    64  60  85 E3        30.09S
LORAIN-ELYRIA  CLOUDY    62  58  86 CALM      30.08S
ASHTABULA      CLOUDY    62  60  93 CALM      30.09S
AKRON-CANTON   MOCLDY    64  60  87 NE5       30.07S
WOOSTER        FAIR      61  60  97 NE6       30.07S
MANSFIELD      FAIR      58  57  97 N6        30.07S
YOUNGSTOWN     LGT RAIN  62  60  93 E6        30.08S
$$

OHZ042-051>053-060>062-070>072-077>081-171000-
  SOUTHWEST OHIO

CITY           SKY/WX    TMP DP  RH WIND       PRES   REMARKS
CINC-COVINGTON FAIR      63  56  78 N6        30.02S
CINC-LUNKEN    FOG       61  61 100 CALM      30.02S VSB 3/4
HAMILTON       FAIR      62  60  93 CALM      30.03S
DAYTON         FAIR      62  58  86 N7        30.05S
WRIGHT-PAT AFB FAIR      62  59  92 CALM      30.00F
DAYTON GENERAL FAIR      61  59  93 NE6       30.02F
WILMINGTON     FAIR      60  59  96 NE6       30.02S FOG
$$

OHZ036-037-039>041-045>050-054>059-063>069-073>076-082>088-171000-
  CENTRAL AND SOUTHEAST OHIO

CITY           SKY/WX    TMP DP  RH WIND       PRES   REMARKS
COLUMBUS       FAIR      63  60  90 CALM      30.02S
OSU AIRPORT    FAIR      62  58  86 N6        30.03S
BOLTON FIELD   FAIR      61  58  91 NE5       30.03F
RICKENBACK AFB FAIR      63  59  89 NE9       30.01F
NEWARK         FAIR      63  59  87 CALM      30.03S
MARION         FAIR      59  56  89 N5        30.06S
LANCASTER      FAIR      59  59 100 N3        30.03S FOG
ZANESVILLE     MOCLDY    63  60  90 N3        30.03S
NEW PHILLY     CLOUDY    63  59  87 CALM      30.06R
$$